Location: Dumpton Point
(51.3500°N, 1.4433°E)
Time: 10:23:48
(UTC+00:00)

Explorer 11/Cluster Stage 4 - All Passes

Search period start: 27 September 2022 00:00
Search period end: 07 October 2022 00:00
Orbit: 466 x 1249 km, 28.8° (Epoch: 26 September)

Date Brightness Start Highest point End Pass type
(mag) Time Alt. Az. Time Alt. Az. Time Alt. Az.
04 Oct - 12:08:12 10° S 12:09:50 11° S 12:11:24 10° SSE daylight
05 Oct - 11:54:45 10° SSW 11:57:05 11° S 11:59:23 10° SSE daylight
06 Oct - 11:41:32 10° SSW 11:44:20 12° S 11:47:04 10° SSE daylight
